Location: Rowland
(34.5359°N, 79.2929°W)
Time: 17:52:04
(UTC+00:00)

S-56A Canister/Altair - Pass Details

Date: 06 October 2022
Orbit: 638 x 2494 km, 38.9° (Epoch: 06 December)

Event Time Altitude Azimuth Distance (km) Brightness Sun altitude
Exits shadow 07:54:24 57° 46° (NE) 1,625 9.1 -41.2°
Drops below altitude 10° 08:00:16 10° 80° (E) 3,003 11.2 -40.1°
Sets 08:02:34 0° 83° (E) 3,764 11.9 -39.7°
